This is the latest recevied weather packets stored in our database for station/object AB8Y-13. If no packets are shown the sender has not sent any weather packets the latest 10 day(s).
| Time | Temp. | Humidity | Pressure | Rain* | Wind** | Luminosity | Snow |
|---|---|---|---|---|---|---|---|
| 1777672773 | 7.22° C | 55% | 1015.3 hPa | 0 mm | - | 88 W/m² | - |
| 1777672470 | 7.22° C | 56% | 1015.2 hPa | 0 mm | - | 76 W/m² | - |
| 1777672165 | 7.78° C | 54% | 1015.3 hPa | 0 mm | - | 95 W/m² | - |
| 1777671861 | 7.78° C | 55% | 1015.2 hPa | 0 mm | - | 103 W/m² | - |
| 1777671556 | 7.78° C | 52% | 1015.4 hPa | 0 mm | - | 106 W/m² | - |
| 1777671254 | 7.78° C | 56% | 1015.4 hPa | 0 mm | - | 97 W/m² | - |
| 1777670949 | 7.78° C | 55% | 1015.2 hPa | 0 mm | - | 151 W/m² | - |
| 1777670646 | 7.78° C | 51% | 1015.3 hPa | 0 mm | - | 130 W/m² | - |
| 1777670343 | 7.78° C | 52% | 1015.2 hPa | 0 mm | - | 152 W/m² | - |
| 1777670040 | 7.78° C | 54% | 1015.1 hPa | 0 mm | - | 175 W/m² | - |
| 1777669738 | 7.78° C | 52% | 1015 hPa | 0 mm | - | 174 W/m² | - |
| 1777669435 | 7.22° C | 53% | 1015.2 hPa | 0 mm | - | 173 W/m² | - |
| 1777669131 | 7.22° C | 57% | 1015.1 hPa | 0 mm | - | 166 W/m² | - |
| 1777668828 | 7.22° C | 56% | 1015.2 hPa | 0 mm | - | 151 W/m² | - |
| 1777668525 | 7.78° C | 54% | 1015 hPa | 0 mm | - | 110 W/m² | - |
| 1777668221 | 7.78° C | 55% | 1015.1 hPa | 0 mm | - | 105 W/m² | - |
| 1777667917 | 7.78° C | 56% | 1015.1 hPa | 0 mm | - | 119 W/m² | - |
| 1777667615 | 7.78° C | 51% | 1014.9 hPa | 0 mm | - | 141 W/m² | - |
| 1777667312 | 7.78° C | 53% | 1015.1 hPa | 0 mm | - | 129 W/m² | - |
| 1777667009 | 8.33° C | 51% | 1015.1 hPa | 0 mm | - | 173 W/m² | - |
| 1777666706 | 8.33° C | 51% | 1015 hPa | 0 mm | - | 201 W/m² | - |
| 1777666402 | 8.33° C | 50% | 1015.1 hPa | 0 mm | - | 300 W/m² | - |
| 1777666099 | 7.78° C | 50% | 1014.9 hPa | 0 mm | - | 225 W/m² | - |
| 1777665796 | 7.78° C | 51% | 1014.7 hPa | 0 mm | - | 167 W/m² | - |
| 1777665494 | 7.78° C | 52% | 1014.9 hPa | 0 mm | - | 163 W/m² | - |
* Rain latest hour (hover to see other rain measurements)
** Current wind speed in m/s (hover to see current wind gust speed)